Terminal Aerodrome Forecast
Issued by NWS Cleveland, OH

Home | Current Version | Previous Version | Text Only | Print | Product List | Glossary Off
Versions: 1 2 3 4 5 6 7 8 9 10 11 12

828
FTUS41 KCLE 241137
TAFMFD
TAF
KMFD 241137Z 2412/2512 06005KT P6SM FEW100 SCT250
     FM241400 09012G20KT P6SM SCT100 BKN250
     FM250100 11010KT P6SM BKN050 OVC100=

USA.gov is the U.S. government's official web portal to all federal, state and local government web resources and services.